This is the latest recevied weather packets stored in our database for station/object N9EA. If no packets are shown the sender has not sent any weather packets the latest 10 day(s).
| Time | Temp. | Humidity | Pressure | Rain* | Wind** | Luminosity | Snow |
|---|---|---|---|---|---|---|---|
| 1777828277 | 17.78° C | 45% | 1008.5 hPa | 0 mm | - | 726 W/m² | - |
| 1777827974 | 17.78° C | 45% | 1008.4 hPa | 0 mm | - | 721 W/m² | - |
| 1777827670 | 17.78° C | 45% | 1008.4 hPa | 0 mm | - | 713 W/m² | - |
| 1777827368 | 17.22° C | 47% | 1008.7 hPa | 0 mm | - | 699 W/m² | - |
| 1777827064 | 16.67° C | 48% | 1008.9 hPa | 0 mm | - | 679 W/m² | - |
| 1777826761 | 16.11° C | 50% | 1008.9 hPa | 0 mm | - | 678 W/m² | - |
| 1777826458 | 16.67° C | 50% | 1008.9 hPa | 0 mm | - | 608 W/m² | - |
| 1777826155 | 16.11° C | 51% | 1009.1 hPa | 0 mm | - | 691 W/m² | - |
| 1777825852 | 16.67° C | 50% | 1009.2 hPa | 0 mm | - | 497 W/m² | - |
| 1777825549 | 15.56° C | 51% | 1009.2 hPa | 0 mm | - | 696 W/m² | - |
| 1777825247 | 15° C | 52% | 1009.1 hPa | 0 mm | - | 666 W/m² | - |
| 1777824943 | 15° C | 53% | 1009.3 hPa | 0 mm | - | 647 W/m² | - |
| 1777824639 | 15° C | 55% | 1009.4 hPa | 0 mm | - | 648 W/m² | - |
| 1777824337 | 14.44° C | 55% | 1009.5 hPa | 0 mm | - | 588 W/m² | - |
| 1777824032 | 13.89° C | 58% | 1009.4 hPa | 0 mm | - | 429 W/m² | - |
| 1777823729 | 13.33° C | 58% | 1009.8 hPa | 0 mm | - | 362 W/m² | - |
| 1777823426 | 12.78° C | 58% | 1009.9 hPa | 0 mm | - | 297 W/m² | - |
| 1777823124 | 12.78° C | 58% | 1009.9 hPa | 0 mm | - | 278 W/m² | - |
| 1777822821 | 12.22° C | 59% | 1010 hPa | 0 mm | - | 226 W/m² | - |
| 1777822519 | 12.22° C | 59% | 1010.2 hPa | 0 mm | - | 121 W/m² | - |
| 1777822216 | 12.22° C | 58% | 1009.9 hPa | 0 mm | - | 152 W/m² | - |
| 1777821914 | 12.22° C | 59% | 1010.6 hPa | 0 mm | - | 118 W/m² | - |
| 1777821611 | 11.67° C | 58% | 1010.2 hPa | 0 mm | - | 82 W/m² | - |
| 1777821310 | 11.67° C | 59% | 1010.6 hPa | 0 mm | - | 44 W/m² | - |
| 1777821006 | 11.67° C | 58% | 1010.7 hPa | 0 mm | - | 27 W/m² | - |
* Rain latest hour (hover to see other rain measurements)
** Current wind speed in m/s (hover to see current wind gust speed)